L’HERAULTAISE Cyclosportive La Roger Pingeon - 07/04/2013

Sportive de 90 Km


Pl Do. Nom - Surname Prénom - Name S-Cat /cat Club - Team TEMPS - Time Km/h /sx
1 1584 CANTONI VINCENT MB 1 MONTPELLIER LANGUEDOC CYCLISME 02:41:13 33,49 1
2 1340 COSNIER VALENTIN MB 2 VELO SPORT CHARTRAIN 02:41:18 33,48 2
3 1641 ARNASSAN JEAN-FÉLIX MA 1 CC LE BOULOU 02:41:21 33,47 3
4 1233 BONNEROT-AGNIEL FLORIAN MA 2 MONTPELLIER LANGUEDOC CYCLISME 02:42:44 33,18 4
5 1504 LEFEBVRE RICHARD MB 3 MONTPELLIER LANGUEDOC CYCLISME 02:42:44 33,18 5
6 1518 LAGASSE GUILLAUME MA 3 TEAM ANDOUARD 02:42:45 33,18 6
7 1344 DIJOLS HUGUES MA 4 MONTAGNAC AC 02:42:46 33,18 7
8 1690 SKAKAL ADRIEN MA 5 GUIDON SPORTIF SÉTOIS 02:42:46 33,17 8
9 1509 ROVERSO GILLES MA 6 VC VEDASIEN 02:42:47 33,17 9
10 1575 MICHIELETTO KÉVIN MA 7   02:44:41 32,79 10
11 1393 DURBIANO ROMAIN MA 8 VS NARBONNAIS 02:44:41 32,79 11
12 1497 LAVAUZELLE FREDERIC MB 4 ELAN CYCLISTE BALARUCOIS 02:45:04 32,71 12
13 1469 HUERTAS FREDERIC MB 5   02:45:04 32,71 13
14 1657 CARTAL MARC MD 1 ASPES 02:45:05 32,71 14
15 1502 ROUX DIDIER MC 1 TMB SAINT AUNES 02:45:05 32,71 15
16 1613 PRAX GUILHEM MA 9 V.C. SALINDRES 02:45:06 32,71 16
17 1448 VALLEJO CEDRIC MB 6 ASPH MONTPELLIER 02:45:06 32,71 17
18 1580 LAVAILL XAVIER MB 7 MONTAGNAC AC 02:45:07 32,70 18
19 1424 FIOL ARNAUD MA 10 EC ANDUZE 02:46:07 32,51 19
20 1746 BOURDON CYRIL MA 11 ROC EVASION 02:46:13 32,49 20
21 1528 JEANJEAN NICOLAS MC 2 MONTAGNAC AC 02:46:16 32,48 21
22 1623 CHAPELLE JEREMIE MB 8 V.C. SALINDRES 02:46:18 32,47 22
23 1665 FLUCHER JÉRÔME MC 3   02:46:59 32,34 23
24 1466 BENOIT VINCENT MC 4 CROCO D 02:47:08 32,31 24
25 1560 GERBAL BRUNO MC 5 TMB SAINT AUNÈS 02:47:08 32,31 25
26 1417 BRUN CHRISTOPHE MC 6 MONTPELLIER LANGUEDOC CYCLISME 02:47:09 32,31 26
27 1490 GUIHUIT MARIAN MD 2 VELO CLUB DE SALINDRES 02:47:12 32,29 27
28 1373 BRUNEL NICOLAS MC 7 TMB SAINT AUNES 02:47:50 32,17 28
29 1611 PIERSON LUC MA 12 VO2 TRIATHLON 02:47:50 32,17 29
30 1486 VERNET FREDERIC MB 9 VS SAINT AFRIQUAIN 02:47:52 32,17 30
31 1432 BOUCHET ALEXANDRE MC 8 AC CORCONNE 02:47:53 32,16 31
32 1383 BONZOM CHRISTOPHE MC 9 BEZIERS MEDIT 02:48:03 32,13 32
33 1543 ROUX PHILIPPE MF 1 TMB SAINT AUNÈS 02:48:16 32,09 33
34 1425 TEISSEDRE HERVE MC 10 UC ST CHELY (48) 02:48:37 32,02 34
35 1384 MAURY BENJAMIN MA 13 LUNEL BIKE 02:48:38 32,02 35
36 1347 BES PIERRE MA 14   02:50:12 31,73 36
37 1652 CARAMEL MAXIME MA 15   02:50:15 31,72 37
38 1468 DANJOU STEPHANE MC 11 NEUTRE 02:50:32 31,66 38
39 1299 DUMAS DAVID MB 10 LUNEL VÉLO PASSION 02:50:32 31,66 39
40 1354 HERNANDEZ FRANCK MC 12 COCGP30 02:50:33 31,66 40
41 1591 REANEY CONNOR MA 16   02:50:34 31,66 41
42 1330 MARCHAND CHRISTOPHE MC 13 MONTAGNAC AC 02:50:34 31,66 42
43 1585 SARROU LUDOVIC MB 11 ECB BALARUC 02:50:35 31,66 43
44 1540 CHAUMARD DAVID MA 17 MONTPELLIER LANGUEDOC CYCLISME 02:50:35 31,65 44
45 1460 CAMPOS XAVIER MC 14 VC REALMONT 02:50:36 31,65 45
46 1705 VILLADER LAURENT MF 2   02:50:36 31,65 46
47 1449 GUMY ERIC MC 15 TBC 34 02:50:36 31,65 47
48 1555 PIGEON PIERRE-OLINE MF 3 TMB SAINT AUNES 02:50:38 31,64 48
49 1646 COURRIEU JEAN-MICHEL MC 16   02:51:39 31,46 49
50 1620 DUMONT FRANCK MB 12 LA FLECHE FLORACOISE 02:51:39 31,46 50
51 1477 MATEO HENRI MC 17 ENTENTE CYCLISTE VALLON DOURDON 02:51:41 31,45 51
52 1510 BOUVIER BERNARD MD 3   02:51:46 31,44 52
53 1547 ALLIES ROMAIN MA 18 VCLL PEZENAS 02:51:49 31,43 53
54 1654 HERVE JULIEN MA 19   02:51:50 31,42 54
55 1750 PIERSON REMI MA 20 ASPH MONTPELLIER 02:51:54 31,41 55
56 1279 MARTY GAEL MA 21 LUNEL VÉLO PASSION 02:52:24 31,32 56
57 1642 BALAUDÉ JEAN-FRANÇOIS MD 4   02:52:25 31,32 57
58 1606 REVEILLAS LIVIA FW1 1 MONTAGNAC AC 02:52:25 31,32 1
59 1415 FLORENTIN FRANÇOIS MC 18 MONTPELLIER LANGUEDOC CYCLISME 02:52:26 31,32 58
60 1345 ROQUES YVES MC 19 MONTAGNAC AC 02:52:26 31,32 59
61 1511 MARTIN XAVIER MC 20 TEYRAN BIKE 34 02:52:26 31,32 60
62 1386 OLLER PIERRE MB 13 VCLL PEZENAS 02:52:26 31,31 61
63 1549 PENIN PASCAL MC 21 NL 02:52:27 31,31 62
64 1370 COURVOISIER RENALD MB 14 MONTAGNAC AC 02:52:27 31,31 63
65 1483 MARQUIS THIERRY MD 5 SPRINTER CLUB PERPIGNAN 02:52:29 31,30 64
66 1625 FERNANDEZ LOIC MA 22 ELAN CYCLISTE BALARUCOIS 02:52:31 31,30 65
67 1545 CAZILLAC PATRICE MC 22   02:52:32 31,30 66
68 1553 BOUISSIERE SEBASTIEN MB 15 UV MAZAMET 02:52:32 31,30 67
69 1476 BERTRAND DANIEL MC 23 CSO MILLAU 02:52:36 31,29 68
70 1489 DANIS CHRISTOPHE MD 6 VELO CLUB DE SALINDRES 02:53:03 31,20 69
71 1406 ARTIGUES OLIVIER MB 16   02:53:06 31,19 70
72 1248 CLEMENCON JULIEN MF 4 LA FLÉCHE FLORACOISE 02:53:29 31,13 71
73 1566 BAILLY STEPHANE MB 17 ELAN CYCLISTE BALARUCOIS 02:54:04 31,02 72
74 1334 SOLER DIEGO MD 7 TEYRAN BIKE 34 02:54:39 30,92 73
75 1582 ROMAN JULIEN MC 24 VCLL PEZENAS 02:54:41 30,91 74
76 1443 COULY EMMANUEL MA 23 BALMA VELO SPRINT 31 02:55:57 30,69 75
77 1394 BENAREAU IGNAKI MC 25 CC LE BOULOU 02:56:00 30,68 76
78 1605 BEZIAT CHRISTIAN MD 8 BEZIERS MEDIT 02:56:32 30,59 77
79 1276 LUCY MATHIEU MF 5 LUNEL VÉLO PASSION 02:56:37 30,57 78
80 1639 DA COSTA MELVIN MA 24 TC NARBONNE 02:56:37 30,57 79
81 1375 CALMES JÉROME MB 18 LUNEL BIKE 02:56:47 30,55 80
82 1478 VAYSSIERE JEAN CLAUDE MC 26 VÉLO CLUB RODEZ 02:56:57 30,51 81
83 1671 CHAPEL DANIEL ME 1 MONTAGNAC AC 02:56:58 30,51 82
84 1253 LIEUTIER EMMANUEL MC 27 CC RIVESALTES 02:56:59 30,51 83
85 1687 PUERTA ANGEL MC 28 VÉLO SPORT CASTRAIS 02:57:39 30,40 84
86 1731 FLATRY OLIVIER MC 29 TEAM MONTAGNAC AC 02:57:39 30,39 85
87 1261 BARBAZA CHRISTIAN MB 19   02:57:40 30,39 86
88 1712 PRESSOIR GÉRARD MF 6 VELO CLUB SULPICIEN 02:57:40 30,39 87
89 1462 CASTAGNE THIERRY MC 30 VCLL PEZENAS 02:57:41 30,39 88
90 1364 MILLET JACQUES MD 9 CLUB CYCLISTE MULTIPOLE ETANG DE BERRE 02:57:43 30,38 89
91 1260 SCHOUTHEER BERNARD MC 31 CC BEDARIEUX 02:57:44 30,38 90
92 1514 OLIVIER SÉBASTIEN MC 32 ASPH MONTPELLIER 02:57:45 30,38 91
93 1374 MAURY JEROME MC 33 LUNEL BIKE 02:58:01 30,33 92
94 1561 GOSSET JULIEN MA 25   02:58:19 30,28 93
95 1616 DAMBRUNE GAETAN MA 26 ASPH MONTPELLIER 02:58:23 30,27 94
96 1387 ANDRE CHRISTIAN MC 34 VCLL PEZENAS 02:58:24 30,27 95
97 1650 PORTEFAIX ALAIN MC 35 CHAUDES-AIGUES UNION CYCLISTE 02:58:25 30,26 96
98 1333 LAUSEL FABRICE MC 36 VCLL PEZENAS 02:58:26 30,26 97
99 1250 COUDERC BENOIT MA 27 ELAN CYCLISTE BALARUCOIS 02:58:26 30,26 98
100 1672 DAGORNE FLORIAN MA 28   02:58:26 30,26 99
101 1495 WOITTEQUAND CHRISTIAN ME 2 LE VELO D'OLT 02:58:27 30,26 100
102 1720 MIRALLES RICHARD MC 37 CYCLO CLUB BEDARIEUX 02:58:28 30,26 101
103 1235 LAFFONT GUILLAUME MA 29 ARIÈGE VÉLO SPORT 02:58:28 30,26 102
104 1426 MACIEL NOEL MB 20 SAINT DREZERY CC 02:58:29 30,25 103
105 1621 MORENO ANTHONY MB 21 RIVESALTES 02:58:34 30,24 104
106 1607 PETEL DUBOUSQUET SEBASTIEN MC 38 ELCP 02:59:09 30,14 105
107 1748 CLEMENÇON PASCAL MB 22 MONTAGNAC AC 02:59:33 30,07 106
108 1719 ROUX RÉGIS MC 39 AC CLAPIERS 02:59:59 30,00 107
109 1627 AUTRIC FRÉDÉRIC MC 40   03:00:05 29,99 108
110 1388 ITURAT JOSE MC 41   03:00:05 29,99 109
111 1456 AUDRIN CHRISTIAN MC 42 TBC 34 03:00:13 29,96 110
112 1525 LOPEZ DAVID MC 43 BEZIERS MEDIT 03:00:34 29,90 111
113 1709 MOLINA LAURENT MF 7 SPIRIDON VELO CLUB NIMOIS 03:01:07 29,81 112
114 1645 LARSEN POUL-ERIK ME 3   03:01:16 29,79 113
115 1557 PLANCHET JOEL MC 44   03:01:18 29,78 114
116 1640 DURAND GEOFFREY MB 23 MONTPELLIER LANGUEDOC CYCLISME 03:01:26 29,76 115
117 1352 GUIBERT SYLVAIN MC 45   03:01:26 29,76 116
118 1328 PEGON GÉRARD MD 10 CLUB NEUTRE LR 03:01:30 29,75 117
119 1475 FOURES PATRICE MC 46 VÉLO CLUB RODEZ 03:01:31 29,75 118
120 1444 BLANC SEBASTIEN MB 24   03:01:32 29,75 119
121 1533 FONS SYLVIA FW1 2 CC RIVESALTES 03:01:38 29,73 2
122 1487 SAUPIN FABRICE MC 47 LA RENAUDIE 03:01:57 29,68 120
123 1551 VIEILLESCAZES THIERRY MC 48 VÉLO D'OLT 03:02:08 29,65 121
124 1277 CHAUZU LUDOVIC MC 49 LUNEL VÉLO PASSION 03:02:36 29,57 122
125 1612 PILLET XAVIER MB 25 TEAM VERCORS 03:02:56 29,52 123
126 1577 BONZOMS CHRISTOPHE MC 50 GUIDON SPORTIF COURSAN NARBONNE 03:03:20 29,45 124
127 1692 SOLIGNAC THIERRY MD 11 MONTAGNAC AC 03:03:21 29,45 125
128 1643 RAGNERE RENE MD 12   03:03:22 29,45 126
129 1738 GARRIC MICHEL MD 13   03:03:22 29,45 127
130 1663 ENJALRIC YVES MD 14   03:03:24 29,44 128
131 1722 COPPOLA GÉRALD MB 26 LA FLÈCHE SU MIDI 03:03:24 29,44 129
132 1697 MOUISSON JOHAN MC 51   03:03:25 29,44 130
133 1301 CAUMETTE CHRISTOPHE MC 52   03:03:25 29,44 131
134 1565 MARQUES FERNANDO MC 53 VC VITROLLES 03:03:26 29,44 132
135 1710 MONFIL XAVIER MF 8 TEAM MONTAGNAC AC 03:03:26 29,44 133
136 1649 FABRY FREDERIC MB 27   03:03:27 29,44 134
137 1567 RAYNAUD YVES MD 15 CCS 34 03:03:27 29,43 135
138 1234 DUPHIL CHRISTOPHE MC 54 ASUC 03:03:27 29,43 136
139 1268 HOLLARD PHILIPPE MD 16 TEYRAN BIKE 34 03:03:27 29,43 137
140 1563 MYSLYWIAK DIDIER MD 17 VCLL PEZENAS 03:03:27 29,43 138
141 1603 PUYDEBOIS MATHIAS MC 55 COURSERANS CYCLISTE 03:03:28 29,43 139
142 1442 CHEVALLIER SEBASTIEN MB 28 CEVENNES ENDURANCE 03:03:30 29,43 140
143 1664 GUIDICE ROMAIN MA 30 VS SAINT AFRIQUAIN 03:03:36 29,41 141
144 1508 MAZENQ ANTONY MB 29 VÉLO CLUB RODEZ 03:03:52 29,37 142
145 1718 LAURENS FRANCK MC 56 EC POUSSAN 03:03:58 29,35 143
146 1463 MAZIERES AIMÉ MC 57 COCGP30 03:04:23 29,29 144
147 1626 TEZIER FREDERIC MC 58 ELAN CYCLISTE BALARUCOIS 03:04:29 29,27 145
148 1465 FRAYSSE CHRISTIAN MC 59 TEYRAN BIKE 34 03:04:45 29,23 146
149 1365 BARRE PIERRE ME 4 VC MAUGUIO 03:04:48 29,22 147
150 1226 ROBERTS SIMON MD 18 VCLL PEZENAS 03:04:54 29,20 148
151 1529 WISNIEWSKI GEORGES ME 5 VELO CLUB VAL DE CEZE 03:04:56 29,20 149
152 1614 BOURRET THIERRY MD 19 CLUB CYCLISTE SOLIDAIRE 34 03:05:02 29,18 150
153 1221 GUICHARD ARTHUR MA 31   03:05:33 29,10 151
154 1400 GARCIA JEAN CHRISTOPHE MB 30   03:05:35 29,10 152
155 1357 TORRO FLORIAN MA 32 ASPH TRIATHLON 03:05:43 29,07 153
156 1596 GERONIMO ANDRÉ MD 20 CC BEDARIEUX 03:06:14 28,99 154
157 1739 FOURNIER JEAN FRANCOIS MD 21   03:06:20 28,98 155
158 1416 FABRE OLIVIER MC 60 MONTAGNAC AC 03:06:20 28,98 156
159 1522 THOPART CHRISTOPHE MC 61 AMIENS SPORT CYCLISTE 03:06:22 28,97 157
160 1512 BASTIDE FELIX MA 33 RANGO ACTION CYCLE 03:06:28 28,96 158
161 1304 MOREAU ALAIN MC 62 AVENIR FONSORBAIS OMNISPORT 03:06:36 28,94 159
162 1467 GENTEUR THIERRY MD 22 VTT CLU VIESSMANN 03:06:40 28,93 160
163 1594 LEFEBVRE FREDERIC MB 31   03:07:04 28,86 161
164 1586 BRUN CLÉMENT MC 63   03:07:08 28,86 162
165 1453 GUIRAUDOU FREDERIC MC 64   03:07:08 28,86 163
166 1231 BALANDREAUD YVES MC 65   03:07:08 28,85 164
167 1523 ALIAGA JEAN-MARIE MD 23 ASPH MONTPELLIER 03:07:29 28,80 165
168 1337 ANTONI NADEGE FW1 3 ELAN CYCLISTE BALARUCOIS 03:07:31 28,80 3
169 1439 BUIL ARNAUD MB 32   03:07:32 28,79 166
170 1619 LACOUR LAURENT MC 66 FL 03:07:59 28,72 167
171 1238 SENEGAS ANNE FW1 4 VELO CLUB ST QUENTIN EN YVELINES 03:08:04 28,71 4
172 1232 DE OLIVEIRA ARTHUR MB 33 COMITÉ REGIONAL MIDI PYRENÉES 03:08:53 28,59 168
173 1562 RUIZ VALENTIN MA 34 VC MT-AIGOUAL PAYS VIGANAIS 03:09:09 28,55 169
174 1440 LORENZI BRUNO MC 67 CYCLO CLUB SIGEAN 03:09:19 28,52 170
175 1289 SORIANO DAMIEN MA 35   03:09:20 28,52 171
176 1637 AZAM EMELINE FW1 5 VS SAINT AFRIQUAIN 03:09:21 28,52 5
177 1500 CABEL CHRISTOPHE MC 68 ELAN CYCLISTE BALARUCOIS 03:09:21 28,52 172
178 1332 PONS LAURENT MC 69 ELAN CYCLISTE BALARUCOIS 03:09:22 28,52 173
179 1288 COUSINIÉ JÉRÔME MC 70 ASU 03:09:22 28,51 174
180 1257 RODIER JEAN LUC MD 24 CO CARNON 03:09:22 28,51 175
181 1459 MARTINEZ CHRISTINE FW2 1 AGACYCLOS 03:09:22 28,51 6
182 1743 SCHRAPFF DENNIS MC 71 TEYRAN BIKE 34 03:09:22 28,51 176
183 1252 DUPONT JOHAN MB 34 GAZELEC BÉZIERS 03:09:24 28,51 177
184 1507 SÉBASTIEN STÉPHANE MC 72 CAVEIRAC VC 03:09:24 28,51 178
185 1291 SIFFRE JEAN MARIE MC 73 GS COURSAN NARBONNE 03:09:25 28,51 179
186 1713 FONTERS ERIC MF 9 TEAM MONTAGNAC AC 03:09:26 28,50 180
187 1376 LE BONNIEC YVAN MD 25 LUNEL BIKE 03:09:26 28,50 181
188 1485 BEA ALBERT MD 26 SPRINTER CLUB PERPIGNAN 03:09:27 28,50 182
189 1733 FARRET MAX MD 27 AVENIR FONSORBAIS OMNISPORT 03:09:28 28,50 183
190 1628 MARECHAL ERIC MD 28   03:09:29 28,50 184
191 1290 SORIANO RENÉ MD 29 CLUB NEUTRE 03:09:30 28,49 185
192 1399 METEZEAU CHRISTOPHE MC 74   03:09:34 28,48 186
193 1474 BRESLAVEC ROMAIN MB 35   03:09:34 28,48 187
194 1624 LOSMA BRUNO MF 10 CC BEDARIEUX 03:09:38 28,47 188
195 1263 VACQUIÉ JEAN-MARC MD 30 ASU CYCLOSPORT 03:09:40 28,47 189
196 1536 DIVE PIERRE MD 31 CHAUDES-AIGUES UNION CYCLISTE 03:09:41 28,47 190
197 1363 GUILLEMET CHRISTIAN MC 75 GAZELEC BÉZIERS 03:09:42 28,47 191
198 1285 JANNY CEDRIC MA 36   03:09:43 28,46 192
199 1385 TOURNIER MICHEL MC 76 VTT EVASION LE SEQUESTRE 03:09:48 28,45 193
200 1572 GELY JEAN-DENIS MD 32 TEAM JE PORTE 1 CASQUE 03:09:59 28,42 194
201 1732 GEORGERENS CEDRIC MB 36 TEAM MONTAGNAC AC 03:10:02 28,41 195
202 1422 CAUSSEL LILIAN MC 77 FLÈCHE DU MIDI 03:10:43 28,31 196
203 1542 AMO THOMAS MA 37 TRI GRANDE MOTTE 03:10:46 28,30 197
204 1589 JEANJEAN THIERRY MC 78 SORREZE VC 03:11:05 28,26 198
205 1457 MAS JEAN FRANCOIS MC 79 CC BEDARIEUX 03:11:24 28,21 199
206 1683 MARTINEZ JEAN MC 80 TBC 34 03:12:17 28,08 200
207 1297 ALLIER JEANLUC MD 33 TEYRAN BIKE 34 03:12:31 28,05 201
208 1428 LE GALLIC FLORENCE FW1 6 AUDAX NARBONNE 03:12:33 28,04 7
209 1335 VENTURI CHRISTIAN MD 34   03:12:34 28,04 202
210 1421 ADER ABEL MD 35   03:12:37 28,03 203
211 1287 BERNARD THOMAS MA 38 TARGUET BIKE AVENTURE 03:12:45 28,01 204
212 1530 LEMMERY PHILIPPE MC 81 LA FLÈCHE SU MIDI 03:12:53 27,99 205
213 1431 DOLLADILLE CHRISTOPHE MC 82 VC ALESIEN 03:13:03 27,97 206
214 1725 GARET DANIEL MF 11 VILLENEUVE DE BERT ET COIRON 03:13:21 27,93 207
215 1598 GUIGOU FABRICE MC 83 VCV VAILHAUQUES 03:13:21 27,93 208
216 1259 FARENQ JEROME MC 84 CC BEDARIEUX 03:13:28 27,91 209
217 1515 OLIVIER FABIENNE FW2 2   03:13:55 27,85 8
218 1583 TERROBA JOSÉ MC 85 VCLL PEZENAS 03:14:01 27,83 210
219 1532 BIGOURET JEAN LOUIS MC 86 CC RIVESALTES 03:14:06 27,82 211
220 1749 DERVAZ STEPHANE MC 87   03:14:19 27,79 212
221 1608 PARRA JEAN CHARLES ME 6 MONTAGNAC AC 03:14:20 27,79 213
222 1491 GALVEZ JEAN-PAUL MF 12 VELO CLUB CAMBONNAIS 03:14:21 27,78 214
223 1398 DEBAR STEPHANE MB 37 CLUB NEUTRE LR 03:14:21 27,78 215
224 1378 FENDRICH PATRICK MD 36 LUNEL BIKE 03:14:22 27,78 216
225 1282 TROUBADIS PATRICK MC 88 LUNEL VÉLO PASSION 03:14:23 27,78 217
226 1634 LENFANT DANIEL MC 89   03:14:23 27,78 218
227 1341 COMBES GUY MD 37   03:14:24 27,78 219
228 1597 COAT BERNARD MF 13   03:14:33 27,75 220
229 1382 VAN BOGERIJEN MARK MC 90 VCLL PEZENAS 03:14:35 27,75 221
230 1535 VIDAL PHILIPPE MC 91 VS SAINT AFRIQUAIN 03:14:44 27,73 222
231 1644 BASANJON HERVE MC 92   03:14:53 27,71 223
232 1656 CHAPEL ALAIN ME 7   03:15:00 27,69 224
233 1284 ENGSTER JEAN MA 39 LUNEL VÉLO PASSION 03:15:14 27,66 225
234 1673 DARDIER PHILIPPE MC 93   03:15:16 27,65 226
235 1629 SEGUY PATRICE MB 38 GAZELEC BÉZIERS 03:15:28 27,62 227
236 1714 LOUIS NICOLAS MF 14 VC ARLESIEN 03:15:33 27,61 228
237 1360 SOLER PHILIPPE MC 94 CSO MILLAU 03:16:54 27,42 229
238 1395 BENAREAU-PEDERSEN MALENE FW2 3 CC LE BOULOU 03:16:55 27,42 9
239 1604 ARGUEL BERNARD MF 15 VELO CLUB DU VELAY 03:16:55 27,42 230
240 1550 PORTA STEPHANE MC 95   03:16:56 27,42 231
241 1336 CAMBON ROLAND MC 96   03:17:09 27,39 232
242 1702 BARBA ROBER MF 16   03:17:09 27,39 233
243 1717 CHABBERT HENRI NOEL MD 38 VCLL PEZENAS 03:17:10 27,39 234
244 1377 TABOURET JEAN-MARC MC 97 LUNEL BIKE 03:17:14 27,38 235
245 1247 TREARD PHILIPPE MD 39 INDIVIDUEL 03:17:44 27,31 236
246 1437 LECOMTE GRÉGORY MC 98   03:17:52 27,29 237
247 1492 VITOU ALAIN MD 40 FLÈCHE DU MIDI 03:18:05 27,26 238
248 1573 BASSET THIERRRY MC 99 AMICALE BALARUCOISE 03:18:12 27,24 239
249 1592 VLADIMIROVA MARIA FW2 4   03:18:19 27,23 10
250 1286 CAUSSEL LOUIS MF 17 FLÈCHE DU MIDI 03:18:20 27,23 240
251 1458 CHAMBERT PHILIPPE MD 41 CAVEIRAC VC 03:18:25 27,21 241
252 1630 FOUGA GILLES ME 8 ELAN CYCLISTE BALARUCOIS 03:18:48 27,16 242
253 1273 JOST JEAN PAUL MD 42 TRIATHL 03:18:50 27,16 243
254 1298 COUVRAT MAXIME MB 39 NEUTRE 03:18:52 27,15 244
255 1534 GRIMAL DANIEL MD 43 VÉLO CLUB RODEZ 03:19:00 27,13 245
256 1593 JOUAULT BENOIT MC 100 AC CLAPIERS 03:19:02 27,13 246
257 1520 BORIES WILLIAM MA 40 VÉLO D'OLT 03:19:07 27,12 247
258 1661 GUICHARDAZ CYRIL MA 41 ATC26 DONZERE 03:19:15 27,10 248
259 1707 BARRACO ANTOINE MF 18 MONTPELLIER LANGUEDOC CYCLISME 03:19:15 27,10 249
260 1414 DEMORY LAURENT MC 101 AC BEAUMES DE VENISE 03:19:20 27,09 250
261 1610 MOLY DAVID MB 40 ASVRTT 03:19:25 27,08 251
262 1361 SANSONE ERIC MC 102 LUNEL VÉLO PASSION 03:19:27 27,07 252
263 1574 BOSSA BRUNO MC 103 AUTRE 03:19:28 27,07 253
264 1706 GINER FABIEN MF 19   03:19:32 27,06 254
265 1445 DARDENNES HENRY MF 20 VC TOUCY 03:19:34 27,06 255
266 1409 RESALT DIDIER MC 104 ELAN CYCLISTE BALARUCOIS 03:19:38 27,05 256
267 1539 VIALA TANGUY MC 105   03:19:40 27,04 257
268 1648 BENOIT FREDERIC MC 106   03:19:41 27,04 258
269 1513 BOUSQUET EMMANUEL MA 42 MONTPELLIER LANGUEDOC CYCLISME 03:19:43 27,04 259
270 1658 BONNETAIN ARNAUD MC 107 ELAN CYCLISTE BALARUCOIS 03:19:46 27,03 260
271 1420 MILAN THIERRY MC 108 CAVEIRAC VC 03:19:47 27,03 261
272 1531 GIMENEZ JEAN CLAUDE MD 44 CC BEDARIEUX 03:19:51 27,02 262
273 1505 TRZEWIK FABRICE MC 109 BEZIERS MEDIT 03:19:52 27,02 263
274 1723 DURAUD PHILIPPE MD 45 VÉLO SPORT CASTRAIS 03:19:59 27,00 264
275 1251 SANCHEZ EMMANUEL ME 9 TEYRAN BIKE 34 03:20:00 27,00 265
276 1292 CANALS MICHEL MD 46 TEYRAN BIKE 34 03:20:59 26,87 266
277 1659 EYMONET SÉBASTIEN MB 41   03:21:14 26,83 267
278 1700 GONZALEZ ALAIN MD 47   03:21:47 26,76 268
279 1503 ROBIDOU YANNICK MB 42 VS CASTRAIS 03:22:06 26,72 269
280 1242 NUBOIS JOEL ME 10 SAPEURS-POMPIERS SETE 03:22:34 26,66 270
281 1735 TERAUBE JACQUES MD 48   03:22:36 26,65 271
282 1249 NOEL PATRICK MF 21   03:22:43 26,64 272
283 1369 LE FAILLER YANN MB 43   03:22:44 26,64 273
284 1688 FABRE STEPHANE MD 49   03:22:44 26,64 274
285 1224 DOVERGNE PHILIPPE MC 110   03:22:44 26,64 275
286 1482 BADOSA SYLVAIN ME 11 CANOHES AVENIR CYCLISTE 03:22:44 26,63 276
287 1599 DE SAN PEDRO GEROGES MF 22 MONTAGNAC AC 03:22:46 26,63 277
288 1635 LEBOUVIER RAYMOND MD 50 BALMA VÉLO SPRINT 03:22:46 26,63 278
289 1546 KENNEDY DARREN MC 111 VCLL PEZENAS 03:23:03 26,59 279
290 1590 REANEY JOHN MC 112   03:23:16 26,56 280
291 1218 FAURE FLORIAN MD 51 INDIVIDUEL 03:23:30 26,53 281
292 1436 GONCALVES STEPHANE MC 113   03:23:53 26,48 282
293 1454 FERRANDO JEAN MARIE MD 52   03:23:54 26,48 283
294 1470 LEGRAND FRANCK MC 114 ASS TEYRAN BIKE 34 03:23:58 26,47 284
295 1241 VALENTI THIERRY MD 53   03:24:08 26,45 285
296 1217 MUSSET BERNARD ME 12 O.C.P 03:24:10 26,45 286
297 1401 MOLLIMARD JEAN LOUIS ME 13 CC LES COPAINS D'AMBERT 03:24:58 26,34 287
298 1427 VALDEYRON THIERRY MC 115   03:25:06 26,33 288
299 1544 BARROIS BENJAMIN MA 43   03:25:16 26,31 289
300 1479 ROCHE JEAN BENJAMIN MB 44 CANOHES AVENIR CYCLISTE 03:25:20 26,30 290
301 1329 VACARESSE MICHEL MD 54   03:25:29 26,28 291
302 1464 DUPONT CHRISTOPHE MC 116 MIDI-PYRENEES 03:25:30 26,28 292
303 1210 RAMBAUD SYLVAIN ME 14   03:25:30 26,28 293
304 1568 MOLINE BENOIT MF 23 CANOHES AVENIR CYCLISTE 03:25:35 26,26 294
305 1280 LEGRAND YANNICK MD 55 LUNEL VÉLO PASSION 03:25:51 26,23 295
306 1441 DERUY VINCENT MC 117   03:25:53 26,23 296
307 1506 DEFEZ AUGUSTE MD 56   03:26:00 26,21 297
308 1270 COUIC BERNARD MF 24 VS SAINT AFRIQUAIN 03:26:01 26,21 298
309 1362 PALLARES ANDRE MD 57 MAUGUIO CARNON 03:26:01 26,21 299
310 1524 TRIBES THIERRY MC 118 TEYRAN BIKE 34 03:26:15 26,18 300
311 1744 MERCADIER JEAN LAURENT MC 119 TEYRAN BIKE 34 03:26:23 26,16 301
312 1272 CARUSO JEAN-MARC MC 120 LUNEL VÉLO PASSION 03:26:39 26,13 302
313 1538 HUC JEROME MC 121 SUD VELO NE JETEZ PLUS 03:26:54 26,10 303
314 1205 JULLIAN MAURICE MD 58   03:26:55 26,10 304
315 1322 TERRADE JEAN LOUIS ME 15 AVENIR FONSORBAIS OMNISPORT 03:27:19 26,05 305
316 1353 VAN WELDEN OLIVIER MC 122 CAVEIRAC VC 03:27:34 26,02 306
317 1255 CALMELS FREDERIC MC 123 CLUB NEUTRE 03:27:44 25,99 307
318 1368 MONTES FLORENT MD 59   03:27:45 25,99 308
319 1309 PINAREL PATRICK MC 124 AVENIR FONSORBAIS OMNISPORT 03:27:57 25,97 309
320 1587 BORDENAVE SYLVAIN MB 45   03:28:18 25,92 310
321 1355 IBANEZ JEAN MARIE MC 125 CAVEIRAC VC 03:28:23 25,91 311
322 1366 FLORES THIERRY MC 126   03:28:27 25,90 312
323 1351 JOSE MARTINS OLIVEIRA DE BARROS MB 46 VC LES ANGLES 03:28:47 25,86 313
324 1305 POULIQUEN THIERRY MD 60 AVENIR FONSORBAIS OMNISPORT 03:29:12 25,81 314
325 1633 CAVASTRIN THIERRY MC 127   03:29:23 25,79 315
326 1256 RUBIO DANIEL ME 16 VCLL PEZENAS 03:29:27 25,78 316
327 1682 LOPEZ ROGER MD 61 VCLL PEZENAS 03:29:42 25,75 317
328 1216 LAVAURE MICHEL ME 17   03:29:42 25,75 318
329 1526 SISTERNES RAYMOND MF 25 VCLL PEZENAS 03:29:43 25,75 319
330 1429 ETIENNE DAVID MC 128 VCLL PEZENAS 03:29:43 25,75 320
331 1389 BLANC PATRICE MD 62   03:29:43 25,75 321
332 1245 WILK CHRISTOPHE MC 129 AVENIR FONSORBAIS OMNISPORT 03:29:43 25,75 322
333 1367 BAGATTIN GILLES MD 63 GAILLAC VELO SPORT 03:29:44 25,75 323
334 1527 COURTES CHARLES MC 130 VCLL PEZENAS 03:29:47 25,74 324
335 1677 FRANCO LUDOVIC MC 131 MAUGUIO CARNON 03:29:51 25,73 325
336 1499 TREBUCHON MARIE NOELLE FW3 1 VCLL PEZENAS 03:29:53 25,73 11
337 1578 PEYRAUD JEAN MC 132 VTT ST MATHIEU DE TR 03:29:54 25,73 326
338 1632 TORRALBA JOHAN MD 64   03:30:08 25,70 327
339 1622 MANDART NADEGE MW1 7 RIVESALTES 03:30:09 25,70 328
340 1488 COMBIER CATHERINE FW2 5 LA RENAUDIE 03:31:03 25,59 12
341 1636 LAGASSE LIONEL MB 47 TEAM ANDOUARD 03:31:03 25,59 329
342 1461 TASTAVIN OFELIE FW1 8 VELO CLUB ST MATHIEU 03:31:06 25,58 13
343 1660 LEMOINE PHILIPPE MD 65 VTT ST MATHIEU DE TR 03:31:06 25,58 330
344 1418 TEMPIE MICHEL MD 66 VC TRANSPORTS EN COMMUN NIMOIS 03:31:10 25,57 331
345 1372 THUOT TOM MB 48   03:31:12 25,57 332
346 1358 LAFFONT DIDIER MD 67   03:31:12 25,57 333
347 1552 QUINTANA JEAN MF 26 CYCLO CLUB SIGEAN 03:31:15 25,56 334
348 1254 BRESSON GILLES MD 68   03:31:23 25,55 335
349 1381 RIVIÈRE FRÉDÉRIC MB 49   03:31:42 25,51 336
350 1703 PROTET STEPHANE MF 27   03:31:45 25,50 337
351 1662 LACHERY DAVID MC 133   03:31:57 25,48 338
352 1294 TOURRIERE WILLIAM MC 134   03:32:00 25,47 339
353 1494 GONTIER DENIS MC 135   03:32:44 25,38 340
354 1451 LAVIGNE JEAN MF 28 VELO D'OLT 03:33:03 25,35 341
355 1331 CHABART JACQUES MF 29   03:33:15 25,32 342
356 1564 RACCAGNI STEFANO MC 136 AS CARCASSONNE 03:33:29 25,29 343
357 1615 TAHOR MOHAMED MD 69   03:34:07 25,22 344
358 1724 GIULIANI CHRISTOPHE MC 137 VÉLO SPORT CASTRAIS 03:34:17 25,20 345
359 1517 GORNY HENRI ME 18 UC FUMEL MONSEMPRON-LIBOS 03:34:17 25,20 346
360 1204 GUITARD THIBAUD MB 50   03:34:19 25,20 347
361 1396 WOULFE MAURICE MD 70 PINGNON LIBRE VADASIEN 03:34:19 25,20 348
362 1516 CAMPOY JOSE ME 19 UC FUMEL MONSEMPRON-LIBOS 03:34:21 25,19 349
363 1220 JONQUET JEAN LUC MD 71   03:34:21 25,19 350
364 1480 CHARRASSIER SEBASTIEN MC 138 CANOHES AVENIR CYCLISTE 03:34:42 25,15 351
365 1303 PERIE JEAN MF 30 TARGUET BIKE AVENTURE 03:35:06 25,10 352
366 1433 HOLDSTOCK JOHN MF 31 VCLL PEZENAS 03:35:14 25,09 353
367 1579 GRASSET THIERRY MD 72 VC MENDE LOZ 03:35:25 25,07 354
368 1269 LACAN CHARLES MF 32 VCLL PEZENAS 03:35:50 25,02 355
369 1519 LE BIHAN CHRISTOPHE MC 139   03:35:51 25,02 356
370 1348 FIS JEAN GABRIEL MD 73   03:36:04 24,99 357
371 1588 PLEIBER DAVID MC 140 FLÈCHE DU MIDI 03:37:03 24,88 358
372 1617 GERNIGON CHRISTOPHE MD 74 VTT ST MATHIEU DE TR 03:37:04 24,88 359
373 1227 PATRONE GEORGES MD 75   03:37:04 24,88 360
374 1258 DUMON PATRICIA FW3 2 CO CARNON 03:37:05 24,87 14
375 1455 ALASU JEAN PIERRE MC 141   03:37:24 24,84 361
376 1609 GAMON JEAN-FRANCOIS ME 20   03:37:44 24,80 362
377 1600 CROUZET CHRISTIAN MD 76 CC CASTRIES 03:37:51 24,79 363
378 1239 DEROUET PHILIPPE MF 33   03:38:02 24,77 364
379 1430 CARREAUD FRANCIS MD 77 CAVEIRAC VC 03:38:26 24,72 365
380 1740 RICHARD ALBERT MF 34 ROUE LIBRE GIGNACOISE 03:38:37 24,70 366
381 1407 BARTEMENT CHRISTOPHE MD 78   03:38:52 24,67 367
382 1300 MENEGHETTI PASCAL MC 142   03:39:01 24,65 368
383 1716 GESLOT CHRISTIAN MF 35   03:39:16 24,63 369
384 1412 NADAL MICHEL MD 79   03:39:18 24,62 370
385 1570 POURPOINT MICHEL MD 80   03:39:18 24,62 371
386 1349 JUNIUS FABIEN MB 51   03:39:28 24,60 372
387 1302 LANDIER ANDRÉ MF 36 CLUB NEUTRE 03:39:30 24,60 373
388 1403 CAVALIER JEAN GABRIEL MC 143 VELO D'OLT 03:39:41 24,58 374
389 1410 VINSON PHILIPPE MC 144   03:40:49 24,45 375
390 1681 LASSAUSSE HERVE MC 145   03:42:09 24,31 376
391 1655 CHAPEL AURELIEN MB 52   03:42:37 24,26 377
392 1481 BEAUVAIS VERONIQUE FW2 6 CANOHES AVENIR CYCLISTE 03:42:44 24,24 15
393 1379 ALLOCHIS DAVID MA 44 LUNEL BIKE 03:43:22 24,17 378
394 1307 PODEVIN ERIC MC 146 AVENIR FONSORBAIS OMNISPORT 03:43:30 24,16 379
395 1446 RIOL PATRICK MD 81   03:43:36 24,15 380
396 1392 POTTS JOHN MD 82 VCLL PEZENAS 03:43:37 24,15 381
397 1521 WOULFE AUSTIN MD 83   03:44:02 24,10 382
398 1548 DEURIEU FABIEN MB 53 TC NARBONNE 03:44:51 24,01 383
399 1701 MAREK PATRICK ME 21   03:45:14 23,97 384
400 1472 BOYER CHRISTINE FW2 7   03:47:02 23,78 16
401 1501 ARAUJO JEAN MC 147 CHAUDES-AIGUES UNION CYCLISTE 03:47:03 23,78 385
402 1236 FOURNIAL NICOLAS MC 148 ASU 03:47:06 23,78 386
403 1356 TORO JEAN CLAUDE MD 84   03:47:07 23,78 387
404 1601 BREGMESTRE SAMUEL MB 54 ASPH MONTPELLIER 03:47:52 23,70 388
405 1711 SALACROUP ANDRÉ MF 37 EVBB BRETENOUX 03:48:15 23,66 389
406 1569 TROUILLET JEAN LOUIS ME 22   03:49:58 23,48 390
407 1408 DAUMOND JEAN-CLAUDE MF 38 VC MAUGUIO 03:50:12 23,46 391
408 1265 AUBANIAC MICHEL MD 85 ECLP LUC PRIMAUBE 03:50:25 23,43 392
409 1554 D'ISERNIA VINCENT MF 39   03:50:25 23,43 393
410 1264 MARTY RAYMOND ME 23 ECLP LUC PRIMAUBE 03:50:25 23,43 394
411 1310 ESCOT HENRY MC 149 AVENIR FONSORBAIS OMNISPORT 03:51:02 23,37 395
412 1219 COBOS MAX MC 150   03:51:10 23,36 396
413 1618 VACQUIER JEAN MARC MD 86 VALLEE DE LA SORGUES 03:52:48 23,20 397
414 1450 GAY ROBERT ME 24 ASSOCIATION SPORTIVE DE L'UNION 03:53:00 23,17 398
415 1397 MONDY MICHEL MF 40 ASUC 03:53:01 23,17 399
416 1271 MATHIEU STÉPHANIE FW1 9   03:53:54 23,09 17
417 1471 SENTUBERY SYLVAIN MC 151 INDIVIDUEL 03:53:58 23,08 400
418 1306 KABRI SOFIANE MA 45 AVENIR FONSORBAIS OMNISPORT 03:54:17 23,05 401
419 1419 VIDAMO PATRICK MD 87 VELO SPORT CASTELNAUDARY 03:54:41 23,01 402
420 1631 LAGAND PHILIPPE MD 88 ELAN BALARUC 03:54:44 23,00 403
421 1651 FERRE JEAN MF 41   03:57:10 22,77 404
422 1484 CAMPIGNA CHARLES MD 89 CC RIVESALTES 03:57:16 22,76 405
423 1213 VILASECA PASCAL MC 152   03:58:05 22,68 406
424 1423 BISCH JEAN MICHEL MC 153   03:58:05 22,68 407
425 1214 CRAMBES JEROME MC 154   03:58:06 22,68 408
426 1212 KNOBLOCH CHRISTOPHE MC 155   03:58:06 22,68 409
427 1653 FAURE ANDRE MF 42 AUTRE 03:58:10 22,67 410
428 1206 BERGER PASCAL MD 90   03:58:18 22,66 411
429 1473 GONZALEZ NIEVES FW2 8 CANOHES AVENIR CYCLISTE 03:58:42 22,62 18
430 1751 GIORDANENGO DENIS MD 91   03:58:42 22,62 412
431 1244 CENTOMO DENIS ME 25 GUIDON SPORTIF SÉTOIS 03:58:43 22,62 413
432 1296 MAS CHRISTINE FW2 9   03:58:49 22,61 19
433 1262 VALENTIN LOUIS MD 92 ECLP LUC PRIMAUBE 03:58:50 22,61 414
434 1295 MAS CHRISTIAN MF 43   03:58:50 22,61 415
435 1496 GAUVRIT YVES ME 26 VCV VAILHAUQUES 03:59:56 22,50 416
436 1736 MOYNIER MARINETTE FW3 3 VCV VAILHAUQUES 03:59:57 22,50 20
437 1230 HARDMAN JACKIE FW3 4   04:01:03 22,40 21
438 1229 HARDMAN PETER ME 27   04:01:03 22,40 417
439 1319 DESBONNET ERIC MC 156 AVENIR FONSORBAIS OMNISPORT 04:02:19 22,28 418
440 1312 BRUNEL ALAIN MF 44 AVENIR FONSORBAIS OMNISPORT 04:02:36 22,26 419
441 1558 AVY FRANCOISE FW3 5   04:02:42 22,25 22
442 1741 BLANCHEMANCHE NICOLAS MC 157 FOYER RURAL SECTION VTT LE POUGET 04:03:28 22,18 420
443 1222 PIQUET LAURENT MD 93   04:04:01 22,13 421
444 1595 JOURNET STEPHANE MC 158   04:04:03 22,13 422
445 1315 MOLES FREDERIC MD 94 AVENIR FONSORBAIS OMNISPORT 04:04:19 22,10 423
446 1208 MORA JEAN CLAUDE ME 28   04:04:39 22,07 424
447 1211 MANSUY BERNARD ME 29   04:04:39 22,07 425
448 1207 ESQUIVA JEAN NOEL MC 159   04:04:39 22,07 426
449 1338 CASTAREDE JOSETTE FW3 6   04:05:17 22,01 23
450 1405 GABENS GUY MD 95   04:05:36 21,99 427
451 1267 LAGARRIGUE ALAIN ME 30 INDIVIDUEL 04:05:37 21,98 428
452 1438 COSTECALDE BENJAMIN MB 55 VÉLO D'OLT 04:05:59 21,95 429
453 1704 MOLINIER FRANCIS MF 45   04:06:37 21,90 430
454 1745 DEPLAT MARIE-REINE FW3 7 CO CARNON 04:06:48 21,88 24
455 1715 SERREAU ROGER MF 46 ENTENTE BRETENIOUX BIARS 04:07:19 21,83 431
456 1320 TROCELLO PHILIPPE MC 160 AVENIR FONSORBAIS OMNISPORT 04:10:27 21,56 432
457 1541 BEAUVILLAIN OLIVIER MD 96   04:10:32 21,55 433
458 1413 GAREL DIDIER MD 97   04:11:50 21,44 434
459 1359 MOLY JEAN CHARLES MD 98   04:11:50 21,44 435
460 1293 PERE MICHEL MF 47   04:13:38 21,29 436
461 1371 DARRICARRERE JACQUES ME 31   04:18:13 20,91 437
462 1559 PALOMBA BERNARD MF 48   04:20:10 20,75 438
463 1237 COBOS PATRICK MC 161   04:20:18 20,74 439
464 1318 HAGARD ROSY FW3 8 AVENIR FONSORBAIS OMNISPORT 04:20:53 20,70 25
465 1243 PENA PASCAL MC 162 AVENIR FONSORBAIS OMNISPORT 04:20:53 20,70 440
466 1316 PARAPEL THIERRY MC 163 AVENIR FONSORBAIS OMNISPORT 04:20:53 20,70 441
467 1321 LERAT JACQUES MF 49 AVENIR FONSORBAIS OMNISPORT 04:20:54 20,70 442
468 1308 MOREAU RENÉ MF 50 AVENIR FONSORBAIS OMNISPORT 04:20:54 20,70 443
469 1493 RESSIER CLAUDE ME 32   04:20:55 20,70 444
470 1325 REGASSE PATRICK MC 164 AVENIR FONSORBAIS OMNISPORT 04:21:00 20,69 445
471 1411 FORAT DOMINIQUE MD 99   04:24:31 20,41 446
472 1404 ARBRE STÉPHANE MB 56   04:25:28 20,34 447
473 1323 PRATVIEL DANIEL MF 51 AVENIR FONSORBAIS OMNISPORT 04:27:36 20,18 448
474 1202 CONSTANT PASCAL MV1 1 US BERRY ATHLETISME 04:28:54 20,08 449
475 1742 BELBES ALAIN MF 52 AS ESPERE CYCLO 04:31:07 19,92 450
476 1728 GERACI GAETAN MD 100 ELAN CYCLISTE BALARUCOIS 04:33:45 19,72 451
477 1730 PALHIES SYLVAIN MB 57   04:33:46 19,72 452
478 1727 MAZON JEROME MB 58 ELAN CYCLISTE BALARUCOIS 04:33:46 19,72 453
479 1729 PERES MARIO MD 101   04:33:46 19,72 454
480 1402 MIOLANE PASCALE FW3 9 CC LES COPAINS D'AMBERT 04:34:00 19,71 26
481 1435 FARRAS SERGE MD 102   04:36:24 19,54 455
482 1721 CROUZET RENÉ MF 53 AC COMITÉ D'AUVERGNE 04:37:56 19,43 456
483 1342 BERGON PATRICK MD 103 AVENIR FONSORBAIS OMNISPORT 04:41:49 19,16 457
484 1324 PRATVIEL MICHEL MF 54 AVENIR FONSORBAIS OMNISPORT 04:46:47 18,83 458
485 1326 VIDAL JEAN LOUIS ME 33 AVENIR FONSORBAIS OMNISPORT 04:46:48 18,83 459
486 1203 CAMMAS AURORE FW3 10 AS ESPERE CYCLO 04:46:49 18,83 27
487 1317 BEAUCHAMPS DOMINIQUE MD 104 AVENIR FONSORBAIS OMNISPORT 04:46:50 18,83 460
488 1327 COMPTE FLOREAL ME 34 AVENIR FONSORBAIS OMNISPORT 04:46:50 18,83 461
489 1311 REGO MAUEL MD 105 AVENIR FONSORBAIS OMNISPORT 04:46:51 18,83 462
490 1266 GUILLOBEZ BERNADETTE FW3 11 SUD VELO NE JETEZ PLUS 04:48:17 18,73 28
491 1537 GUILLOBEZ SERGE MF 55 SUD VELO NE JETEZ PLUS 04:48:17 18,73 463
492 1638 VELEZ JEAN RENE ME 35   04:50:57 18,56 464
493 1228 FALGAYRAC ANNIE FW3 12 AS ESPERE CYCLO 04:56:03 18,24 29
494 1223 RUDZKY SYLVIANE FW3 13 AS ESPERE CYCLO 04:56:04 18,24 30
495 1209 RICHARD FRÉDÉRIC MC 165   00:00:00 3,75 465
496 1225 DOVERGNE BARNABÉ MF 56   00:00:00 3,75 466
497 1240 FOUCHON-LAPEYRADE CHRISTOPHE MC 166 MONTPELLIER LANGUEDOC CYCLISME 00:00:00 3,75 467
498 1274 MARIN BENJAMIN MA 47 LUNEL VÉLO PASSION 00:00:00 3,75 468
499 1278 GALABRUN ANDRÉ MF 57 LUNEL VÉLO PASSION 00:00:00 3,75 469
500 1339 WAILLIER SYLVIE FW3 14 USN-MONTPELLIER 00:00:00 3,75 31
501 1350 CENTELLES JEAN MARC MD 108   00:00:00 3,75 470
502 1380 ESCANDE KEVIN MA 46   00:00:00 3,75 471
503 1498 TREBUCHON JEAN CLAUDE MD 109 VCLL PEZENAS 00:00:00 3,75 473
504 1576 RHANC JEAN-PHILIPPE MB 59   00:00:00 3,75 475
505 1581 BOURDEL PIERRE MC 167 VCLL PEZENAS 00:00:00 3,75 476
506 1647 RICAU CHARLES MA 48 FONTANIL CYCLISME 00:00:00 3,75 477
507 1676 FLORES JEAN MARC MD 107   00:00:00 3,75 478
508 1737 HALLEY FRANCIS MD 106 VCV VAILHAUQUES 00:00:00 3,75 472
509 1747 BOURDON CHRISTIAN MC 168   00:00:00 3,75 474
510 1708 MOLINA GÉRALD MF 58 SPIRIDON VELO CLUB NIMOIS 03:07:37 3,32 479
511 1390 MOLINIER CHRISTIAN MD 110 ROUE LIBRE GIGNACOISE 03:55:26 3,22 480